www.pogodaiklimat.ru

Погода и климат >> Архив погоды >> Индонезия >> Тернат


ПОГОДА в Тернате

  • Прогноз погоды в Тернате
  • Монитор погоды в Тернате

АРХИВ ПОГОДЫ в Тернате

Время (UTC), дата Ветер
(напр.,м/с)
 
Видим.   Явления Облачность Т
(С)
Тd
(С)
f
(%)
Тe
(С)
Тes
(С)
Комфортность P
(гПа)
Po
(гПа)
Тmin
(С)
Tmax
(С)
R
(мм)
R24
(мм)
S
(см)
03 18.06 Ю 6 9000 м {дождь} 8/5 540 м
[Cu med, cong Ac trans Ci sp]
+28.6 +25.1 81 +41 +44 опасность
перегрева
1011.1 1007.2 0.0
06 18.06 ЮЗ 3 9000 м в посл. час дождь 9/5 500 м
[Cu med, cong Ac As Ci sp]
+28.4 +24.3 78 +40 +43 очень
душно
1009.5 1005.6 8
09 18.06 Ю 2 7000 м слаб. дождь 10/8 450 м
[Cb cap As op]
+27.6 +24.1 81 +38 +38 очень
душно
1010.1 1006.2 2
12 18.06 Ю 1 9000 м 10/6 500 м
[Cu med, cong As op Ci sp]
+26.0 +23.6 87 +35 +35 очень
душно
1011.6 1007.7 +30.0 3
15 18.06 ЮЗ 2 9000 м в посл. час дождь 8/4 540 м
[Cu med, cong Ac trans Ci sp]
+26.2 +23.2 84 +35 +35 очень
душно
1011.5 1007.6 0.0
18 18.06 Ю 2 9000 м {дождь} 9/5 540 м
[Cu med, cong Ac trans Ci sp]
+26.4 +23.1 82 +35 +35 очень
душно
1010.3 1006.4 0.0
21 18.06 Ю 3 8000 м слаб. дождь 8/5 540 м
[Cu med, cong Ac trans Ci sp]
+26.2 +23.2 84 +35 +35 очень
душно
1010.3 1006.4 0.0
00 19.06 Ю 2 8000 м слаб. дождь 9/8 500 м
[Cu med, cong As op]
+26.8 +24.6 88 +38 +39 очень
душно
1011.3 1007.4 +26.0 2
03 19.06 Ю 3 8000 м слаб. дождь 9/6 500 м
[Cu med, cong Ac As]
+29.4 +23.6 71 +40 +43 очень
душно
1010.5 1006.6 0.0
06 19.06 Ю 3 9000 м {дождь} 8/5 500 м
[Cu med, cong Ac As Ci sp]
+30.3 +23.2 66 +41 +44 опасность
перегрева
1008.6 1004.7 0.0
09 19.06 Ю 2 9000 м 5/3 540 м
[Cu med, cong Ac trans Ci sp]
+29.6 +21.6 62 +38 +38 очень
душно
1008.6 1004.7
12 19.06 штиль 0 9000 м 5/3 540 м
[Cu med, cong Ac trans Ci sp]
+27.2 +23.0 78 +36 +36 очень
душно
1010.4 1006.5 +31.6
15 19.06 штиль 0 10 км 5/3 570 м
[Cu med, cong Ac trans Ci fib]
+25.4 +22.6 85 +33 +33 очень
душно
1010.6 1006.7
18 19.06 штиль 0 10 км 8/3 570 м
[Cu med, cong Ac trans Ci fib]
+25.8 +23.3 86 +35 +35 очень
душно
1009.4 1005.5
21 19.06 штиль 0 10 км 1/1 600 м
[Cu med, cong Ac trans Ci fib]
+25.2 +23.0 88 +34 +34 очень
душно
1009.6 1005.7
00 20.06 Ю 2 10 км 1/1 600 м
[Cu hum Ci fib]
+28.8 +24.1 76 +40 +46 очень
душно
1011.1 1007.2 +25.0
03 20.06 ЮВ 6 10 км 3/3 570 м
[Cu med, cong Ci fib]
+31.4 +23.3 62 +42 +48 опасность
перегрева
1010.5 1006.6
06 20.06 Ю 4 10 км 4/3 570 м
[Cu med, cong Ac trans Ci fib]
+31.6 +23.8 63 +43 +49 опасность
перегрева
1009.3 1005.4
09 20.06 Ю 2 10 км 6/3 570 м
[Cu med, cong Ac trans Ci fib]
+29.6 +25.0 76 +42 +43 опасность
перегрева
1009.6 1005.7
12 20.06 Ю 1 10 км 5/3 570 м
[Cu med, cong Ac trans Ci fib]
+28.0 +24.7 82 +40 +40 очень
душно
1012.1 1008.2 +32.2
15 20.06 штиль 0 10 км 4/1 570 м
[Cu med, cong Ac trans Ci fib]
+27.4 +23.9 81 +38 +38 очень
душно
1011.7 1007.8
18 20.06 штиль 0 10 км 5/3 570 м
[Cu med, cong Ac trans Ci fib]
+25.8 +22.8 84 +34 +34 очень
душно
1010.3 1006.4
21 20.06 Ю 2 10 км 5/3 570 м
[Cu med, cong Ac trans Ci fib]
+26.2 +22.6 81 +35 +35 очень
душно
1009.8 1005.9
00 21.06 ЮВ 3 10 км 1/1 600 м
[Cu med, cong Ac trans Ci fib]
+29.0 +23.5 72 +39 +45 очень
душно
1011.1 1007.2 +25.2
03 21.06 Ю 4 10 км 1/1 570 м
[Cu med, cong Ac trans Ci fib]
+31.2 +23.0 62 +41 +54 опасность
перегрева
1010.0 1006.1
06 21.06 В 3 10 км 3/3 570 м
[Cu med, cong Ac trans Ci fib]
+30.8 +24.0 67 +42 +49 опасность
перегрева
1008.6 1004.7
09 21.06 ЮЗ 1 10 км 5/4 540 м
[Cu med, cong Ac trans Ci sp]
+30.2 +25.1 74 +44 +44 опасность
перегрева
1009.2 1005.3
12 21.06 штиль 0 10 км 4/3 540 м
[Cu med, cong Ac trans Ci fib]
+27.8 +24.6 83 +39 +39 очень
душно
1011.3 1007.4 +32.6
15 21.06 штиль 0 9000 м 5/3 600 м
[Cu med, cong Ac trans Ci fib]
+25.6 +23.5 88 +35 +35 очень
душно
1011.1 1007.2
18 21.06 штиль 0 9000 м 5/3 600 м
[Cu med, cong Ac trans Ci fib]
+25.0 +23.0 89 +33 +33 очень
душно
1009.5 1005.6
21 21.06 Ю 2 9000 м 1/1 500 м
[Cu hum Ac trans Ci fib]
+25.1 +22.5 86 +33 +33 очень
душно
1009.5 1005.6
00 22.06 Ю 5 10 км 3/3 570 м
[Cu med, cong Ci fib]
+29.0 +22.8 69 +38 +41 очень
душно
1010.2 1006.3 +24.4
03 22.06 ЮВ 4 10 км 5/4 570 м
[Cu med, cong Ac trans Ci fib]
+31.6 +23.5 62 +42 +49 опасность
перегрева
1009.4 1005.5
06 22.06 Ю 2 10 км 5/4 570 м
[Cu med, cong Ac trans Ci fib]
+32.8 +23.6 59 +44 +51 опасность
перегрева
1007.5 1003.6
09 22.06 штиль 0 10 км 4/3 540 м
[Cu med, cong Ac trans Ci fib]
+31.0 +23.9 66 +43 +43 опасность
перегрева
1008.3 1004.4
12 22.06 ЮЗ 1 10 км 4/3 540 м
[Cu med, cong Ac trans Ci fib]
+27.4 +22.6 75 +36 +36 очень
душно
1010.5 1006.6 +33.2
15 22.06 штиль 0 10 км 4/1 600 м
[Cu hum Ac trans Ci fib]
+26.4 +21.2 73 +33 +33 очень
душно
1010.5 1006.6
18 22.06 штиль 0 10 км 3/1 600 м
[Cu hum Ac trans Ci fib]
+24.8 +20.5 77 +31 +31 очень
душно
1009.6 1005.7
21 22.06 штиль 0 10 км 1/1 600 м
[Cu hum Ci fib]
+24.8 +20.8 78 +31 +31 очень
душно
1009.8 1005.9
00 23.06 ЮВ 3 10 км 1/1 600 м
[Cu hum Ci fib]
+29.9 +22.1 63 +39 +44 очень
душно
1010.6 1006.7 +24.6
03 23.06 Ю 4 10 км 1/1 600 м
[Cu hum Ci fib]
+31.3 +23.3 63 +42 +53 опасность
перегрева
1010.6 1006.7
06 23.06 ЮЗ 3 10 км 3/3 600 м
[Cu hum]
+32.8 +23.8 59 +44 +52 опасность
перегрева
1008.9 1005.0
09 23.06 Ю 2 10 км 1/1 600 м
[Cu hum Ci fib]
+30.8 +24.2 68 +43 +43 опасность
перегрева
1009.1 1005.2
12 23.06 штиль 0 10 км 1/1 600 м
[Cu med, cong Ci fib]
+28.4 +24.0 77 +39 +39 очень
душно
1011.3 1007.4
15 23.06 штиль 0 10 км 1/1 600 м
[Cu med, cong Ci fib]
+25.6 +22.8 85 +34 +34 очень
душно
1011.7 1007.8
18 23.06 штиль 0 10 км 1/1 600 м
[Cu med, cong Ci fib]
+25.2 +22.1 83 +33 +33 очень
душно
1011.2 1007.3
21 23.06 штиль 0 10 км 1/1 600 м
[Cu med, cong Ac trans Ci fib]
+25.4 +23.5 89 +34 +34 очень
душно
1011.7 1007.8
00 24.06 ЮВ 5 10 км 1/1 600 м
[Cu hum Ci fib]
+28.8 +22.9 70 +38 +41 очень
душно
1013.0 1009.1 +25.2
03 24.06 В 4 10 км 3/3 570 м
[Cu med, cong Ci fib]
+30.6 +24.6 70 +43 +53 опасность
перегрева
1012.1 1008.2
06 24.06 ЮЗ 2 10 км 3/3 570 м
[Cu med, cong Ci fib]
+31.2 +25.2 70 +45 +53 опасность
перегрева
1010.2 1006.3
09 24.06 ЮЗ 3 10 км 4/3 600 м
[Cu med, cong Ac trans Ci fib]
+30.0 +24.6 73 +43 +43 опасность
перегрева
1010.4 1006.5
12 24.06 ЮЗ 1 10 км 3/3 600 м
[Cu med, cong Ci fib]
+28.4 +24.6 80 +40 +40 очень
душно
1012.8 1008.9 +32.2
15 24.06 СВ 1 10 км 3/3 600 м
[Cu med, cong Ci fib]
+26.4 +23.1 82 +35 +35 очень
душно
1013.4 1009.5
18 24.06 ЮВ 4 10 км 3/3 600 м
[Cu med, cong Ci fib]
+25.6 +23.2 87 +34 +34 очень
душно
1012.1 1008.2
21 24.06 штиль 0 10 км 5/1 600 м
[Cu med, cong As op Ci sp]
+24.4 +22.5 89 +32 +32 очень
душно
1012.3 1008.4
00 25.06 ЮВ 4 10 км 1/1 600 м
[Cu med, cong Ci fib]
+29.4 +24.8 76 +42 +46 опасность
перегрева
1013.3 1009.4 +24.4

 

Местоположение метеостанции Тернат (Индонезия): широта 0.77 долгота 127.36 высота над уровнем моря 23 м.

В архиве по умолчанию представлена погода в Тернате за последнюю неделю. Архивные данные за месяц целиком и за предыдущие месяцы, начиная с января 2011 года, Вы можете получить, выбрав интересующий диапазон дат из раскрывающегося списка и нажав кнопку "Ввод!".


*Определитесь, кто Вы:
робот инопланетянин человек

Внимание! Время в таблицах - всемирное. Для получения местного времени необходимо прибавить поправку, которая равна 9 ч.

Смотрите также архив погоды в соседних городах и на ближайших метеорологических станциях:

Погода в Голеа (Индонезия) (128 км)
Погода в Лабухе (Индонезия) (156 км)
Погода в Битунге (Индонезия) (253 км)
Погода в Менадо (Индонезия) (285 км)
Погода на Санане (Индонезия) (351 км)
Погода в Намлеа (Индонезия) (448 км)
Погода в Аэропорту Соронг-Джефман (Индонезия) (458 км)
Погода в Горонтало (Индонезия) (479 км)
Погода в Амахаи (Индонезия) (488 км)
Погода в Амбоне (Индонезия) (504 км)

Пояснения к столбцам:

Ветер - указаны скорость ветра в м/с - средняя за 10 мин, порывы в срок и между сроками (в фигурных скобках) и направление, откуда дует ветер: С - северный, СВ - северо-восточный, В - восточный, ЮВ - юго-восточный, Ю - южный, ЮЗ - юго-западный, З - западный, СЗ - северо-западный.
Видимость - горизонтальная дальность видимости в метрах или километрах. При видимости от 1 до 10 км при отсутствии осадков обычно наблюдается дымка, при ухудшении видимости до 1 км и менее - туман. В сухую погоду видимость может ухудшаться дымом, пылью или мглою.
Явления - указаны атмосферные явления, наблюдавшиеся в срок или в последний час перед сроком; фигурными скобками обозначены явления, наблюдавшиеся между сроками (за 1-3 часа до срока); квадратными скобками обозначены град или гололедные отложения с указанием их диаметра в мм.
Облачность - указаны через наклонную черту общая и нижняя облачность в баллах и высота нижней границы облаков в метрах; квадратными скобками обозначены формы облаков: Ci - перистые, Cs - перисто-слоистые, Cc - перисто-кучевые, Ac - высококучевые, As - высокослоистые, Sc - слоисто-кучевые, Ns - слоисто-дождевые, Cu - кучевые, Cb - кучево-дождевые. Подробнее классификацию облаков см. в Атласе облаков (PDF).
T - Температура воздуха - температура, измеренная на высоте 2 м над землей.
Td - Температура точки росы - температура, при понижении до которой содержащийся в воздухе водяной пар достигнет насыщения.
f - Относительная влажность воздуха - влажноcть воздуха, измеренная на высоте 2 м над землей.
Te - Эффективная температура - температура, которую ощущает одетый по сезону человек в тени. Характеристика душности погоды. При расчете учитывается влияние влажности воздуха и скорости ветра на теплоощущения человека.
Tes - Эффективная температура на солнце - температура, которую ощущает человек, с поправкой на солнечный нагрев. Характеристика знойности погоды. Зависит от высоты солнца над горизонтом, облачности и скорости ветра. Ночью, в пасмурную погоду, а также при ветре 12 м/с и более поправка равна нулю.
P - Атмосферное давление - приведенное к уровню моря атмосферное давление.
Po - Атмосферное давление - измеренное на уровне метеостанции атмосферное давление.
Tmin - Минимальная температура - минимум температуры воздуха на высоте 2 м над землей.
Tmax - Максимальная температура - максимум температуры воздуха на высоте 2 м над землей.
R - Количество осадков - Количество выпавших осадков за период времени, мм. При наведении курсора мыши на число - период времени, за который выпало указанное количество осадков.
R24 - Количество осадков - Количество выпавших осадков за 24 часа, мм.
S - Снежный покров - Высота снежного покрова, см. При наведении курсора мыши на число - состояние снежного покрова и степень покрытия местности в баллах.